TimeEDT,TemperatureF,Dew PointF,Humidity,Sea Level PressureIn,VisibilityMPH,Wind Direction,Wind SpeedMPH,Gust SpeedMPH,PrecipitationIn,Events,Conditions,WindDirDegrees,DateUTC
12:53 AM,77.0,75.9,96,29.99,9.0,Calm,Calm,-,N/A,,Clear,0,2012-10-09 04:53:00
1:53 AM,75.9,75.9,100,29.97,9.0,Calm,Calm,-,N/A,,Clear,0,2012-10-09 05:53:00
2:53 AM,75.9,75.9,100,29.96,5.0,Calm,Calm,-,N/A,,Clear,0,2012-10-09 06:53:00
3:53 AM,75.2,75.2,100,29.96,9.0,Calm,Calm,-,N/A,,Clear,0,2012-10-09 07:53:00
4:53 AM,75.9,75.9,100,29.96,10.0,Calm,Calm,-,N/A,,Clear,0,2012-10-09 08:53:00
5:53 AM,75.9,75.9,100,29.96,10.0,Calm,Calm,-,N/A,,Clear,0,2012-10-09 09:53:00
6:53 AM,75.0,75.0,100,29.97,10.0,North,3.5,-,N/A,,Clear,10,2012-10-09 10:53:00
7:53 AM,75.9,75.9,100,29.99,8.0,Calm,Calm,-,N/A,,Clear,0,2012-10-09 11:53:00
8:53 AM,81.0,77.0,88,30.00,10.0,NNE,4.6,-,N/A,,Clear,30,2012-10-09 12:53:00
9:53 AM,84.0,75.0,74,30.01,10.0,North,4.6,-,N/A,,Clear,10,2012-10-09 13:53:00
10:53 AM,86.0,73.0,65,30.03,10.0,NNE,6.9,-,N/A,,Scattered Clouds,20,2012-10-09 14:53:00
11:53 AM,88.0,73.9,63,30.02,10.0,North,4.6,-,N/A,,Partly Cloudy,350,2012-10-09 15:53:00
12:53 PM,87.1,72.0,61,30.01,10.0,North,4.6,-,N/A,,Mostly Cloudy,10,2012-10-09 16:53:00
1:53 PM,89.1,72.0,57,29.98,10.0,Variable,5.8,-,N/A,,Scattered Clouds,0,2012-10-09 17:53:00
2:53 PM,86.0,73.0,65,29.97,10.0,ESE,8.1,-,N/A,,Scattered Clouds,110,2012-10-09 18:53:00
3:53 PM,88.0,73.9,63,29.96,10.0,East,9.2,16.1,N/A,,Overcast,80,2012-10-09 19:53:00
4:53 PM,86.0,73.9,67,29.96,10.0,ESE,10.4,-,N/A,,Mostly Cloudy,110,2012-10-09 20:53:00
5:53 PM,84.0,75.0,74,29.96,10.0,East,6.9,-,N/A,,Clear,90,2012-10-09 21:53:00
6:53 PM,82.9,75.0,77,29.97,10.0,ESE,6.9,-,N/A,,Clear,110,2012-10-09 22:53:00
7:53 PM,82.0,75.9,82,29.98,10.0,East,9.2,-,N/A,,Scattered Clouds,90,2012-10-09 23:53:00
8:02 PM,82.4,75.2,79,29.98,10.0,East,8.1,-,N/A,Thunderstorm,Mostly Cloudy,90,2012-10-10 00:02:00
8:25 PM,80.6,75.2,84,30.00,10.0,East,6.9,-,N/A,,Partly Cloudy,90,2012-10-10 00:25:00
8:42 PM,80.6,75.2,84,30.00,10.0,East,5.8,-,N/A,Thunderstorm,Mostly Cloudy,80,2012-10-10 00:42:00
8:53 PM,82.0,73.9,76,30.01,10.0,East,3.5,-,N/A,Thunderstorm,Scattered Clouds,90,2012-10-10 00:53:00
9:07 PM,80.6,75.2,84,30.01,10.0,East,4.6,-,0.00,Rain,Light Rain,100,2012-10-10 01:07:00
9:53 PM,78.1,75.9,93,30.03,10.0,NW,6.9,-,0.00,,Scattered Clouds,310,2012-10-10 01:53:00
10:53 PM,77.0,75.9,96,30.04,10.0,WNW,4.6,-,N/A,,Scattered Clouds,290,2012-10-10 02:53:00
11:53 PM,75.9,75.0,97,30.03,10.0,West,4.6,-,N/A,,Clear,260,2012-10-10 03:53:00